CW3224 Weather Reports


time (UTC)temp
F
wind
direction
speed
knots
gust
knots
rain 1hr
in
rain 24hr
in
rain mn
in
humidity
%
barometer
mb
20260503032426 43 87 0.0 0.0 0.00 0.24 0.24 90 1010.6
20260503031421 44 87 0.0 0.0 0.00 0.24 0.24 90 1010.3
20260503030852 44 87 0.0 0.0 0.00 0.24 0.24 90 1010.3
20260503025421 44 87 0.0 0.0 0.00 0.24 0.24 90 1010.3
20260503025340 44 87 0.0 0.0 0.00 0.24 0.24 90 1010.3
20260503023421 45 87 0.0 0.0 0.00 0.24 0.24 90 1010.3
20260503022415 45 87 0.0 0.0 0.00 0.24 0.24 90 1010.5
20260503021415 45 87 0.0 0.0 0.00 0.24 0.24 90 1010.6
20260503020902 46 87 0.0 0.0 0.00 0.24 0.24 90 1010.6
20260503015411 46 87 0.0 0.0 0.01 0.24 0.24 90 1010.7
20260503014409 46 87 0.0 0.0 0.01 0.24 0.24 90 1010.7
20260503013846 47 87 0.0 0.0 0.01 0.24 0.24 90 1010.7
20260503012409 47 87 0.0 0.0 0.01 0.24 0.24 90 1010.6
20260503011408 47 87 0.0 0.0 0.01 0.24 0.24 90 1010.5
20260503010409 47 87 0.0 0.0 0.01 0.24 0.24 90 1010.5
20260503005410 47 87 0.0 0.0 0.00 0.23 0.24 90 1010.5
20260503004409 47 87 0.0 0.0 0.00 0.23 0.23 90 1010.5
20260503003355 48 87 0.0 0.0 0.00 0.23 0.23 90 1010.5
20260503002836 48 87 0.0 2.6 0.00 0.23 0.23 90 1010.3
20260503001354 49 119 0.0 0.0 0.00 0.23 0.23 90 1010.2
20260503000833 49 115 0.0 0.0 0.00 0.23 0.23 90 1010.2
20260502235354 49 161 0.0 0.0 0.00 0.23 0.23 90 1010.2
20260502234840 49 161 0.0 0.0 0.00 0.23 0.23 90 1010.2
20260502233348 49 161 0.0 0.0 0.00 0.23 0.23 90 1010.2
20260502232348 49 161 0.0 0.0 0.00 0.23 0.23 90 1010.0
20260502231348 50 161 0.0 0.0 0.00 0.23 0.23 90 1009.8
20260502230833 50 161 0.0 0.0 0.00 0.23 0.23 90 1009.8
20260502225349 50 161 0.0 0.0 0.00 0.23 0.23 90 1009.7
20260502224346 49 161 0.0 0.0 0.00 0.23 0.23 90 1009.7
20260502223827 49 161 0.0 0.0 0.00 0.23 0.23 90 1009.7
20260502222348 49 161 0.0 0.0 0.00 0.23 0.23 89 1009.5
20260502221346 49 161 0.0 0.0 0.01 0.23 0.23 89 1009.5
20260502221300 49 161 0.9 3.5 0.02 0.23 0.23 89 1009.5
20260502215346 49 191 0.0 2.6 0.02 0.23 0.23 89 1009.7
20260502214344 49 193 0.0 0.9 0.04 0.23 0.23 88 1009.7
20260502213345 49 193 0.0 1.7 0.04 0.23 0.23 87 1009.7
20260502212344 49 193 0.0 1.7 0.04 0.23 0.23 86 1009.8
20260502211344 50 193 0.0 0.9 0.03 0.22 0.22 85 1009.9
20260502210344 50 193 0.0 2.6 0.02 0.21 0.21 84 1009.9
20260502205345 51 193 0.0 3.5 0.02 0.21 0.21 83 1009.7
20260502204342 51 192 0.0 0.0 0.00 0.19 0.19 81 1009.7
20260502203343 51 192 0.0 1.7 0.00 0.19 0.19 79 1009.7
20260502202341 51 192 0.0 1.7 0.00 0.19 0.19 79 1009.7
20260502201340 52 192 0.0 0.9 0.00 0.19 0.19 78 1009.7
20260502200338 52 192 0.0 1.7 0.00 0.19 0.19 77 1009.7
20260502195337 53 192 0.9 4.3 0.00 0.19 0.19 76 1009.8
20260502194338 53 281 0.9 2.6 0.00 0.19 0.19 75 1009.9
20260502193337 54 282 1.7 3.5 0.00 0.19 0.19 74 1009.9
20260502192337 55 316 0.9 2.6 0.00 0.19 0.19 73 1009.9
20260502191338 55 170 0.9 3.5 0.00 0.19 0.19 69 1009.7
20260502190812 55 191 2.6 5.2 0.00 0.19 0.19 65 1009.7
20260502185326 55 143 3.5 7.8 0.00 0.19 0.19 66 1009.8
20260502184804 56 214 3.5 7.8 0.00 0.19 0.19 66 1009.9
20260502183327 56 209 3.5 7.0 0.00 0.19 0.19 66 1009.9
20260502182326 56 248 2.6 7.0 0.00 0.19 0.19 67 1010.1
20260502181327 56 207 3.5 8.7 0.00 0.19 0.19 69 1010.2
20260502180804 56 193 4.3 9.6 0.00 0.19 0.19 70 1010.2
20260502170303 54 149 3.5 8.7 0.00 0.19 0.19 76 1010.4
20260502163305 51 148 1.7 3.5 0.00 0.19 0.19 84 1010.7
20260502162257 51 150 0.9 2.6 0.00 0.19 0.19 85 1011.2
20260502161257 50 204 2.6 5.2 0.00 0.19 0.19 85 1011.6
20260502160255 50 225 1.7 3.5 0.00 0.19 0.19 86 1011.6
20260502152246 48 154 0.0 2.6 0.00 0.19 0.19 88 1011.3
20260502151245 48 164 0.9 2.6 0.00 0.19 0.19 88 1011.6
20260502150243 47 165 0.9 2.6 0.00 0.19 0.19 89 1011.6
20260502130232 44 52 0.9 2.6 0.11 0.19 0.19 91 1012.0
20260502123653 44 198 0.0 0.0 0.07 0.13 0.14 91 1012.5
20260502122218 44 198 0.0 0.0 0.08 0.12 0.12 91 1012.3
20260502121217 44 198 0.0 0.0 0.08 0.10 0.10 90 1012.3
20260502120654 44 198 0.0 0.0 0.06 0.08 0.08 90 1012.3
20260502115217 44 198 0.0 0.0 0.06 0.08 0.08 90 1012.2
20260502114654 44 198 0.0 0.0 0.06 0.08 0.08 90 1012.8
20260502113211 44 198 0.0 0.0 0.04 0.06 0.06 90 1012.8
20260502112211 44 198 0.0 0.0 0.02 0.04 0.04 90 1012.3
20260502111212 44 198 0.0 0.0 0.00 0.02 0.02 90 1011.3
20260502110208 43 198 0.0 0.0 0.00 0.02 0.02 89 1011.3
20260502105210 43 198 0.0 0.0 0.01 0.02 0.02 89 1011.3
20260502104208 43 198 0.0 0.0 0.01 0.02 0.02 89 1011.3
20260502103209 43 198 0.0 0.0 0.02 0.02 0.02 88 1011.3
20260502102649 43 198 0.0 0.0 0.02 0.02 0.02 88 1011.3
20260502101209 43 198 0.0 0.0 0.02 0.02 0.02 88 1011.2
20260502100209 43 198 0.0 0.0 0.02 0.02 0.02 87 1011.2
20260502091208 44 181 0.0 0.0 0.00 0.00 0.00 84 1010.7
20260502090206 44 181 0.0 0.0 0.00 0.00 0.00 84 1010.7
20260502071137 44 182 0.0 2.6 0.00 0.00 0.00 80 1011.2
20260502070138 44 182 1.7 5.2 0.00 0.00 0.00 80 1011.2
20260502065136 44 27 1.7 6.1 0.00 0.00 0.00 81 1011.3
20260502064120 43 183 0.0 2.6 0.00 0.00 0.00 81 1011.3
20260502063122 43 34 0.0 1.7 0.00 0.00 0.00 80 1011.3
20260502062121 43 33 0.0 1.7 0.00 0.00 0.00 80 1010.8
20260502061557 43 33 0.9 1.7 0.00 0.00 0.00 79 1011.0
20260502060121 43 33 0.0 0.9 0.00 0.00 0.00 79 1011.0
20260502055122 43 33 0.0 0.0 0.00 0.00 0.00 79 1011.2
20260502054119 43 33 0.0 0.9 0.00 0.00 0.00 78 1011.1
20260502053550 44 33 0.0 0.0 0.00 0.00 0.00 78 1011.1
20260502052105 44 33 0.0 0.0 0.00 0.00 0.00 77 1011.2
20260502051104 44 33 0.0 0.0 0.00 0.00 0.00 76 1011.2
20260502050106 44 33 0.9 4.3 0.00 0.00 0.00 76 1011.2
20260502045553 44 33 0.9 4.3 0.00 0.00 0.00 76 1011.0
20260502044055 44 260 0.0 0.0 0.00 0.00 0.00 75 1011.3
20260502043054 44 260 0.0 1.7 0.00 0.00 0.00 76 1011.3
20260502042054 44 260 0.0 0.0 0.00 0.00 0.00 75 1011.3
20260502041054 44 260 0.0 0.0 0.00 0.00 0.00 75 1011.3
20260502040051 44 260 0.0 0.0 0.00 0.00 0.00 75 1011.3
20260502035051 44 260 0.0 0.0 0.00 0.00 0.00 75 1011.2
20260502034052 44 260 0.0 0.0 0.00 0.00 0.00 75 1011.2
20260502033051 44 260 0.0 0.0 0.00 0.00 0.00 73 1011.2